[[{"header":{"parameterUnit":"m.s-1","parameterCategory":1,"la1":30.2991,"la2":30.254,"lo1":-89.0895,"lo2":-89.0444,"dy":0.0017,"dx":0.0017,"nx":28,"ny":28,"refTime":"2024-07-23T03:00:00:Z","depth":0,"parameterNumber":2,"parameterNumberName":"U-component_of_WINDS"},"data":[0,0,0,0,0,0,0,0,0,0,0,0,0,0,0,0,0,0,0,0,0,0,0,0,0,0,0,0,0,0,0,0,0,0,0,0,0,0,0,0,0,0,0,0,0,0,0,0,0,0,0,0,0,0,0,0,0,0,-0.4443,-0.4441,0,-0.4274,-0.4272,-0.427,-0.418,-0.418,-0.418,-0.418,-0.4001,-0.3997,-0.3992,0,0,0,0,0,0,0,0,0,0,0,0,0,-0.4685,-0.4681,-0.4443,-0.4441,-0.4439,-0.4274,-0.4272,-0.4269,-0.418,-0.418,-0.418,-0.4179,-0.4003,-0.3997,-0.3992,0,0,0,0,0,0,0,0,0,0,0,0,0,-0.4554,-0.468,-0.4444,-0.4375,-0.4367,-0.4275,-0.4272,-0.4269,-0.418,-0.418,-0.418,-0.4179,-0.4004,-0.3998,-0.3991,-0.3953,0,0,-0.397,-0.3967,0,0,0,0,0,0,0,0,-0.4562,-0.4545,-0.4387,-0.4379,-0.437,-0.4248,-0.4291,-0.4163,-0.418,-0.4251,-0.418,-0.4179,-0.4083,-0.407,-0.4038,-0.3945,-0.3937,-0.3969,-0.3965,-0.3962,-0.396,0,0,0,0,0,0,0,-0.4571,-0.4552,-0.4376,-0.4385,-0.4374,-0.4351,-0.4332,-0.4267,-0.417,-0.4245,-0.4238,-0.4219,-0.4078,-0.4045,-0.4033,-0.3934,-0.3969,-0.3963,-0.3959,-0.3956,-0.3801,-0.3801,0,0,0,0,0,0,-0.4592,-0.456,-0.4381,-0.4371,-0.4468,-0.4347,-0.4326,-0.4287,-0.4171,-0.4153,-0.422,-0.4216,-0.4057,-0.4042,-0.4027,-0.3975,-0.3962,-0.3956,-0.3952,-0.3801,-0.3801,-0.3801,0,0,0,0,0,0,-0.4597,-0.4577,-0.4388,-0.4464,-0.4438,-0.4343,-0.43,-0.4284,-0.4251,-0.4152,-0.4134,-0.4204,-0.4056,-0.4037,-0.3972,-0.3968,-0.3953,-0.3946,-0.3801,-0.3801,-0.3801,-0.3872,0,0,0,0,0,0,-0.4604,-0.4579,-0.4565,-0.4464,-0.4434,-0.4338,-0.43,-0.4281,-0.424,-0.4233,-0.4132,-0.4115,-0.4055,-0.3983,-0.3966,-0.3958,-0.3941,-0.3801,-0.3801,-0.3801,-0.3869,-0.3874,-0.3878,0,0,0,0,0,-0.4613,-0.459,-0.4564,-0.4543,-0.4414,-0.4338,-0.4321,-0.4253,-0.424,-0.4224,-0.416,-0.4118,-0.3971,-0.3978,-0.3957,-0.3947,-0.3801,-0.3801,-0.3801,-0.3867,-0.3873,-0.3878,0,0,0,0,0,0,-0.469,-0.4575,-0.4546,-0.4489,-0.4425,-0.4323,-0.4301,-0.4262,-0.4198,-0.4194,-0.4111,-0.4089,-0.4033,-0.3983,-0.3992,-0.3904,-0.3882,-0.3878,-0.3939,-0.3944,-0.3948,-0.3961,-0.3935,0,0,0,0,0,-0.4701,-0.465,-0.4552,-0.4511,-0.4481,-0.4397,-0.4361,-0.4315,-0.4244,-0.4215,-0.4147,-0.4078,-0.4016,-0.3977,-0.3915,-0.3862,-0.3838,-0.3845,-0.3849,-0.3853,-0.3851,-0.382,-0.3821,-0.3801,-0.3801,-0.3801,0,0,-0.4722,-0.4653,-0.4626,-0.4525,-0.447,-0.4418,-0.4374,-0.4321,-0.4281,-0.4206,-0.4142,-0.409,-0.4007,-0.3949,-0.392,-0.3906,-0.3851,-0.3853,-0.3858,-0.3852,-0.382,-0.3822,-0.3824,-0.3802,-0.3802,-0.3802,0,0,-0.4734,-0.4677,-0.4637,-0.4583,-0.45,-0.4444,-0.4435,-0.434,-0.4303,-0.4238,-0.4181,-0.4132,-0.4027,-0.3971,-0.3929,-0.3921,-0.388,-0.3903,-0.3926,-0.3896,-0.3898,-0.3899,-0.3897,-0.3897,-0.39,-0.3901,-0.3901,0,-0.477,-0.4691,-0.4622,-0.4572,-0.453,-0.4462,-0.4421,-0.437,-0.4271,-0.4242,-0.4229,-0.4097,-0.4036,-0.3964,-0.3963,-0.393,-0.3917,-0.3914,-0.3904,-0.3904,-0.3904,-0.3901,-0.39,-0.3904,-0.3904,-0.3903,-0.3903,0,-0.474,-0.4686,-0.4664,-0.4572,-0.4527,-0.4482,-0.4404,-0.4367,-0.4325,-0.4271,-0.4205,-0.413,-0.4052,-0.4032,-0.3989,-0.3953,-0.3948,-0.392,-0.3895,-0.391,-0.3906,-0.3904,-0.3909,-0.3908,-0.3907,-0.3906,0,0,-0.4795,-0.4666,-0.4659,-0.4617,-0.4521,-0.4477,-0.4429,-0.4354,-0.4324,-0.4257,-0.4215,-0.4128,-0.4103,-0.4055,-0.4005,-0.3979,-0.3979,-0.3954,-0.3951,-0.3962,-0.3935,-0.3958,-0.3957,-0.3951,-0.395,-0.395,-0.3943,0,-0.4794,-0.4706,-0.4643,-0.4579,-0.4528,-0.4463,-0.4421,-0.4357,-0.4305,-0.4253,-0.4195,-0.4136,-0.4106,-0.4077,-0.4048,-0.3985,-0.3972,-0.3984,-0.3909,-0.3908,-0.3933,-0.3955,-0.3977,-0.3974,-0.394,-0.394,-0.394,0,-0.4781,-0.4719,-0.4651,-0.4561,-0.4537,-0.4501,-0.4428,-0.438,-0.4305,-0.4269,-0.4217,-0.4167,-0.4112,-0.4093,-0.4016,-0.4026,-0.3991,-0.3955,-0.3953,-0.3944,-0.3925,-0.3946,-0.3971,-0.3971,-0.3936,-0.3936,-0.3937,0,-0.4829,-0.4728,-0.4675,-0.464,-0.4534,-0.451,-0.4464,-0.439,-0.435,-0.4285,-0.4258,-0.4188,-0.4149,-0.4095,-0.4026,-0.4019,-0.3956,-0.3931,-0.3924,-0.3926,-0.3914,-0.3916,-0.3935,-0.3892,-0.3892,-0.3892,-0.3892,0,-0.4834,-0.4795,-0.4695,-0.4662,-0.4617,-0.4543,-0.4499,-0.4448,-0.4383,-0.4338,-0.4276,-0.4235,-0.4147,-0.4095,-0.4041,-0.3985,-0.3968,-0.3937,-0.3923,-0.3943,-0.3947,-0.3919,-0.3918,-0.3891,-0.3891,-0.3891,-0.3892,0,-0.488,-0.4812,-0.4749,-0.4655,-0.463,-0.46,-0.4519,-0.4484,-0.4429,-0.4373,-0.4356,-0.4269,-0.4205,-0.4131,-0.4042,-0.4005,-0.3954,-0.3933,-0.398,-0.3972,-0.397,-0.3971,-0.3971,-0.3968,-0.3928,-0.3928,-0.3928,0,-0.4889,-0.4858,-0.476,-0.4727,-0.4684,-0.463,-0.4589,-0.4516,-0.4475,-0.4389,-0.4365,-0.4296,-0.4237,-0.4137,-0.4065,-0.3997,-0.3974,-0.3979,-0.3963,-0.3985,-0.3975,-0.3978,-0.3975,-0.3984,-0.3984,-0.3985,-0.3986,0,-0.4911,-0.4879,-0.4823,-0.4756,-0.471,-0.4653,-0.4593,-0.4569,-0.4483,-0.444,-0.4375,-0.433,-0.424,-0.4172,-0.4095,-0.4046,-0.4001,-0.3991,-0.3986,-0.4006,-0.4035,-0.402,-0.3993,-0.3992,-0.3991,-0.399,-0.399,-0.399,-0.4938,-0.4908,-0.4836,-0.4776,-0.4724,-0.467,-0.4633,-0.4574,-0.4519,-0.4442,-0.4401,-0.4336,-0.4263,-0.4155,-0.4107,-0.4055,-0.404,-0.4032,-0.403,-0.403,-0.4036,-0.4043,-0.404,-0.404,-0.404,-0.4039,-0.4039,0,-0.4958,-0.4909,-0.4855,-0.4774,-0.4727,-0.4692,-0.4624,-0.4586,-0.4531,-0.4467,-0.4411,-0.4336,-0.4271,-0.4195,-0.4124,-0.4096,-0.4074,-0.408,-0.4082,-0.4071,-0.4053,-0.4065,-0.41,-0.41,-0.41,-0.41,-0.41,-0.41,-0.4963,-0.4911,-0.487,-0.4791,-0.4741,-0.4679,-0.4643,-0.4593,-0.4541,-0.4461,-0.4408,-0.4359,-0.429,-0.4214,-0.4152,-0.4131,-0.4108,-0.412,-0.4094,-0.4078,-0.4073,-0.4068,-0.4079,-0.4116,-0.4116,-0.4116,-0.4116,-0.4116]},{"header":{"parameterUnit":"m.s-1","parameterCategory":1,"la1":30.2991,"la2":30.254,"lo1":-89.0895,"lo2":-89.0444,"dy":0.0017,"dx":0.0017,"nx":28,"ny":28,"refTime":"2024-07-23T03:00:00:Z","depth":0,"parameterNumber":3,"parameterNumberName":"V-component_of_WINDS"},"data":[0,0,0,0,0,0,0,0,0,0,0,0,0,0,0,0,0,0,0,0,0,0,0,0,0,0,0,0,0,0,0,0,0,0,0,0,0,0,0,0,0,0,0,0,0,0,0,0,0,0,0,0,0,0,0,0,0,0,3.4488,3.4488,0,3.4489,3.4489,3.4489,3.4432,3.443,3.4429,3.4427,3.4427,3.4428,3.4429,0,0,0,0,0,0,0,0,0,0,0,0,0,3.4432,3.4434,3.4488,3.4488,3.4488,3.4489,3.4489,3.4489,3.4432,3.443,3.4428,3.4427,3.4426,3.4428,3.443,0,0,0,0,0,0,0,0,0,0,0,0,0,3.4447,3.4434,3.4488,3.446,3.4457,3.4489,3.4489,3.4489,3.4433,3.443,3.4428,3.4426,3.4426,3.4428,3.443,3.4488,0,0,3.4436,3.4437,0,0,0,0,0,0,0,0,3.4447,3.4449,3.4464,3.4462,3.4459,3.4458,3.4469,3.4489,3.4433,3.4442,3.4427,3.4425,3.4439,3.444,3.4445,3.4488,3.4488,3.4436,3.4438,3.4439,3.4439,0,0,0,0,0,0,0,3.4446,3.4449,3.4488,3.4464,3.4461,3.4446,3.4445,3.4473,3.4453,3.4441,3.4437,3.4438,3.4437,3.4443,3.4444,3.4488,3.4436,3.4438,3.444,3.444,3.4575,3.4577,0,0,0,0,0,0,3.4449,3.4449,3.4488,3.4489,3.4447,3.4449,3.4448,3.4461,3.4453,3.4449,3.444,3.4435,3.4441,3.4442,3.4444,3.4509,3.4439,3.4441,3.4442,3.4573,3.4576,3.4578,0,0,0,0,0,0,3.4448,3.4453,3.4488,3.4467,3.4471,3.4452,3.4467,3.4462,3.4468,3.4452,3.4448,3.445,3.4439,3.4441,3.4477,3.4509,3.4441,3.4443,3.457,3.4574,3.4577,3.4642,0,0,0,0,0,0,3.4447,3.4453,3.4476,3.4468,3.4472,3.4523,3.4469,3.4464,3.4472,3.4466,3.446,3.4457,3.4437,3.4474,3.4479,3.451,3.4445,3.4567,3.4572,3.4576,3.4637,3.4647,3.4656,0,0,0,0,0,3.4445,3.4495,3.4478,3.4483,3.4501,3.4525,3.4527,3.4504,3.4475,3.4497,3.4486,3.4457,3.4505,3.4478,3.4483,3.4516,3.4565,3.457,3.4576,3.4632,3.4645,3.4656,0,0,0,0,0,0,3.4508,3.4494,3.4474,3.4524,3.4526,3.4515,3.4543,3.4518,3.4528,3.4522,3.4492,3.4492,3.4531,3.4527,3.4498,3.457,3.4529,3.4536,3.4571,3.4583,3.4592,3.4592,3.4447,0,0,0,0,0,3.4527,3.4548,3.4535,3.458,3.4581,3.4562,3.4571,3.4553,3.4554,3.4554,3.4546,3.4547,3.4562,3.4572,3.4585,3.4636,3.4632,3.466,3.467,3.4678,3.4683,3.4706,3.4718,3.4595,3.4595,3.4595,0,0,3.4568,3.4563,3.4578,3.4592,3.4591,3.4612,3.4563,3.4588,3.4603,3.4558,3.459,3.4585,3.4583,3.4626,3.4644,3.4624,3.4716,3.4685,3.4691,3.4692,3.4713,3.4725,3.4735,3.4599,3.4598,3.4598,0,0,3.4652,3.4652,3.4687,3.4687,3.4686,3.4673,3.4681,3.4673,3.4667,3.47,3.4665,3.4682,3.4709,3.4708,3.4712,3.4792,3.4765,3.4797,3.4847,3.487,3.4879,3.4888,3.4914,3.4924,3.4803,3.4803,3.4803,0,3.4703,3.4734,3.4709,3.4735,3.4741,3.4701,3.4735,3.4736,3.474,3.4744,3.4721,3.4751,3.4748,3.4788,3.4807,3.4812,3.4819,3.4797,3.488,3.4888,3.4896,3.492,3.493,3.4807,3.4807,3.4806,3.4806,0,3.4794,3.4816,3.4845,3.4848,3.4857,3.4888,3.4865,3.4877,3.4858,3.4845,3.4877,3.4871,3.4881,3.4889,3.4871,3.4926,3.4912,3.4886,3.4844,3.4911,3.4934,3.4943,3.4812,3.4811,3.481,3.4809,0,0,3.492,3.4907,3.4917,3.4917,3.4912,3.4927,3.4955,3.4964,3.4973,3.4977,3.4997,3.5019,3.4993,3.4997,3.4978,3.4998,3.5058,3.4968,3.4967,3.4983,3.5115,3.5134,3.5145,3.504,3.5042,3.5044,3.5114,0,3.4999,3.5046,3.5022,3.5071,3.5088,3.5049,3.5072,3.5071,3.5059,3.5072,3.5059,3.5074,3.504,3.5042,3.506,3.5047,3.5084,3.5042,3.5057,3.5058,3.5057,3.5157,3.5178,3.5245,3.5123,3.5124,3.5126,0,3.5099,3.5105,3.5155,3.5143,3.515,3.5172,3.5176,3.5189,3.5185,3.5175,3.5178,3.5153,3.5177,3.5137,3.5167,3.5139,3.5144,3.5138,3.514,3.5139,3.5095,3.5157,3.5266,3.5276,3.514,3.5138,3.5137,0,3.5182,3.5203,3.5234,3.5236,3.5223,3.5239,3.5234,3.5228,3.5234,3.5238,3.524,3.5247,3.5251,3.5255,3.5232,3.5206,3.5265,3.5223,3.5255,3.5256,3.5268,3.5268,3.5378,3.5275,3.5275,3.5275,3.5274,0,3.5272,3.5304,3.5271,3.529,3.5323,3.5295,3.5328,3.5319,3.5314,3.5329,3.5296,3.5311,3.528,3.5291,3.5273,3.5299,3.5302,3.5293,3.5287,3.5295,3.5296,3.5296,3.529,3.5277,3.5277,3.5276,3.5276,0,3.537,3.535,3.5381,3.5366,3.5363,3.5388,3.5374,3.539,3.5376,3.5396,3.5399,3.5376,3.5387,3.5365,3.5373,3.5361,3.5397,3.5385,3.5398,3.5394,3.5426,3.5422,3.5539,3.5551,3.5443,3.5444,3.5445,0,3.5429,3.5452,3.5438,3.5446,3.5443,3.5457,3.5462,3.5434,3.544,3.5436,3.5452,3.546,3.5465,3.5485,3.5468,3.5474,3.546,3.5501,3.5461,3.5467,3.5458,3.5456,3.5457,3.5508,3.551,3.5511,3.5512,0,3.5533,3.5521,3.553,3.5535,3.5541,3.5544,3.5544,3.5552,3.5522,3.553,3.5541,3.5545,3.5552,3.556,3.5561,3.5555,3.5527,3.5524,3.5531,3.5539,3.5544,3.5539,3.5418,3.5522,3.5521,3.552,3.5519,3.5519,3.5612,3.5629,3.5621,3.5631,3.5628,3.5627,3.5641,3.5627,3.5636,3.5639,3.5622,3.5636,3.5628,3.5627,3.5623,3.5632,3.5614,3.5625,3.5627,3.563,3.5634,3.5544,3.5633,3.5632,3.5632,3.5632,3.5632,0,3.5712,3.5705,3.5714,3.5714,3.5721,3.5695,3.5692,3.57,3.5712,3.5707,3.5712,3.5723,3.5729,3.5713,3.5716,3.5727,3.5714,3.5728,3.5726,3.5724,3.5652,3.5644,3.5738,3.5738,3.5738,3.5738,3.5738,3.5738,3.5765,3.5792,3.5778,3.5802,3.5793,3.5806,3.5807,3.5805,3.5801,3.5814,3.5819,3.5808,3.5798,3.58,3.5804,3.5798,3.58,3.5818,3.5809,3.5741,3.573,3.572,3.5713,3.582,3.582,3.588,3.5881,3.5881]}]]